Find Hawk 7A

NORAD ID: 56191 Int'l Des: 2023-054 Owner: HE360 Country: US Constellation: hawkeye-360 operational
LEOCIRCULARRETROGRADESSO

当前视图

正在加载3D地球...

关于 Hawk 7A

正在加载描述...

即将过境

Passes for default location (London). Set your location on the main map for personalized predictions.

高度历史

Loading altitude history...

两行轨道根数

1 56191U 23054P 26146.22668312 .00001585 00000-0 62335-4 0 9997
2 56191 97.2729 34.1237 0004765 104.0660 256.1109 15.27088496173677
Epoch: May 26, 2026 • Age: 13 hours

当前状态

高度 489.4 km
速度 7.63 km/s
星下点 43.77°N, 129.87°W
发射日期 Apr 15, 2023
运行时间 3.1 years
类型 other

技术详情

分类 Payload
质量 31.00 kg
干质量 30.00 kg
总质量 31.00 kg
长度 0.45 m
直径 0.30 m
跨度 1.00 m
形状 Box + 2 pan
制造商 UTIAS
平台类型 Hawk2G
阶段状态 In Orbit
所有者/国家 HE360/US

Most Searched